Location: �couen
(49.0206°N, 2.3831°E)
Time: 15:36:35
(UTC+00:00)

FENGYUN 1C DEB - Pass Details

Date: 05 April 2023
Orbit: 840 x 948 km, 98.8° (Epoch: 28 May)

Event Time Altitude Azimuth Distance (km) Brightness Sun altitude
Rises 20:18:45 0° 191° (S) 3,572 ? -17.8°
Reaches altitude 10° 20:21:25 10° 200° (SSW) 2,619 ? -18.1°
Maximum altitude 20:26:41 34° 264° (W) 1,460 ? -18.8°
Drops below altitude 10° 20:31:52 10° 329° (NNW) 2,572 ? -19.5°
Sets 20:34:29 0° 339° (NNW) 3,499 ? -19.9°
